Regional Weather Roundup
Issued by NWS Sioux Falls, SD

Home | Current Version | Previous Version | Text Only | Print | Product List | Glossary On
Versions: 1 2 3 4 5 6 7 8 9 10 11 12 13 14 15 16 17 18 19 20 21 22 23 24 25 26 27 28 29 30 31 32 33 34 35 36 37 38 39 40 41 42 43 44 45 46 47 48 49 50
000
ASUS43 KFSD 290710
RWRFSD

WEATHER ROUNDUP FOR SE SOUTH DAKOTA/SW MINNESOTA/NW IOWA
NATIONAL WEATHER SERVICE SIOUX FALLS SD
200 AM CDT SAT APR 29 2017

NOTE: "FAIR" INDICATES FEW OR NO CLOUDS BELOW 12,000 FEET WITH NO
SIGNIFICANT WEATHER AND OR OBSTRUCTIONS TO VISIBILITY.


SDZ038>040-050-052>070-290800-
SOUTHEAST SOUTH DAKOTA

CITY           SKY/WX    TMP DP  RH WIND       PRES   REMARKS
BROOKINGS      CLOUDY    33  23  66 CALM      30.19R
CHAMBERLAIN    MOCLDY    41  23  49 N3        30.20S
HURON          PTCLDY    30  21  69 CALM      30.21R
MADISON        FAIR      32  25  74 N6        30.19R WCI  26
MITCHELL       CLOUDY    32  24  72 N5        30.21R WCI  27
SIOUX FALLS    MOCLDY    36  27  69 NE6       30.18R
WINNER         PTSUNNY   38  25  59 NE7       30.18F
YANKTON        CLOUDY    43  27  52 N8        30.17S
$$

MNZ071-072-080-081-089-090-097-098-290800-
SOUTHWEST MINNESOTA

CITY           SKY/WX    TMP DP  RH WIND       PRES   REMARKS
FAIRMONT       CLOUDY    37  31  78 NW5       30.18R
JACKSON        CLOUDY    32  28  86 CALM      30.19R
LUVERNE        CLOUDY    36  27  69 N5        30.18R
MARSHALL       PTCLDY    31  25  78 NW7       30.21R WCI  24
MONTEVIDEO     CLOUDY    36  23  60 E3        30.21R
PIPESTONE      CLOUDY    37  21  52 NE7       30.18R
REDWOOD FALLS  CLOUDY    38  24  57 CALM      30.17R
TRACY          CLOUDY    37  28  67 N9        30.19R
WINDOM         CLOUDY    36  27  69 N7        30.18R
WORTHINGTON    CLOUDY    33  26  75 NW7       30.18R WCI  27
$$

IAZ001>003-012>014-020>022-031-032-NEZ013-014-SDZ071-290800-
NORTHWEST IOWA

CITY           SKY/WX    TMP DP  RH WIND       PRES   REMARKS
CHEROKEE       CLOUDY    39  35  84 NE6       30.11F
DENISON        CLOUDY    43  36  75 NE10      30.08F
ESTHERVILLE    PTCLDY    32  30  92 NW7       30.16R WCI  26
LE MARS        CLOUDY    37  32  81 N6        30.14F
ORANGE CITY    MOCLDY    39  30  70 NE7       30.13F
SHELDON        PTCLDY    34  30  86 N6        30.14S WCI  29
SIOUX CITY     CLOUDY    44  34  67 N7        30.13F
SPENCER        PTCLDY    33  30  88 N8        30.15R WCI  26
$$

ABBREVIATIONS USED IN REMARKS
   TC - TEMPERATURE IN CELSIUS
  WCI - WIND CHILL INDEX
   HX - HEAT INDEX
  VSB - VISIBILITY





USA.gov is the U.S. government's official web portal to all federal, state and local government web resources and services.